Easton, MD

6:48 PM EDT on March 22, 2017 (GMT -0400)
Easton / Newnam

Weather History for KESN - May, 2013

Change the Weather History Date:

Sunday, May 26, 2013

  Actual Average Record
Temperature  
Mean Temperature 60 °F -  
Max Temperature 71 °F 73 °F 91 °F (2011)
Min Temperature 50 °F 54 °F 39 °F (1956)
Degree Days  
Heating Degree Days 4    
Growing Degree Days 10 (Base 50)    
Moisture  
Dew Point 41 °F    
Average Humidity 58    
Maximum Humidity 84    
Minimum Humidity 33    
Precipitation  
Precipitation 0.00 in - - ()
Sea Level Pressure  
Sea Level Pressure 30.19 in    
Wind  
Wind Speed 6 mph (NW)    
Max Wind Speed 17 mph    
Max Gust Speed 25 mph    
Visibility 10 miles    
Events      
Averages and records for this station are not official NWS values.
T = Trace of Precipitation, MM = Missing Value Source: NWS Daily Summary

Daily Weather History Graph

Daily Weather History Graph

Search for Another Location

Airport or City:

Trip Planner

Search our weather history database for the weather conditions in past years. The results will help you decide how hot, cold, wet, or windy it might be!

Date:

Astronomy

May. 26, 2013 Rise Set
Actual Time 5:43 AM EDT 8:19 PM EDT
Civil Twilight 5:12 AM EDT 8:50 PM EDT
Nautical Twilight 4:34 AM EDT 9:28 PM EDT
Astronomical Twilight 3:51 AM EDT 10:12 PM EDT
Moon 10:04 PM EDT (5/26) 7:10 AM EDT (5/26)
Length of Visible Light 15h 37m
Length of Day
14h 35m
Waning Gibbous, 97% of the Moon is Illuminated
May 26
Waning Gibbous
May 31
Last Quarter
Jun 8
New
Jun 16
First Quarter
Jun 23
Full

Hourly Weather History & Observations

Time (EDT) Temp. Dew Point Humidity Pressure Visibility Wind Dir Wind Speed Gust Speed Precip Events Conditions
12:14 AM 56.5 °F 40.5 °F 55% 30.16 in 10.0 mi NNW 6.9 mph - N/A   Clear
12:34 AM 55.0 °F 40.6 °F 58% 30.16 in 10.0 mi NNW 8.1 mph - N/A   Clear
12:54 AM 55.4 °F 39.2 °F 54% 30.16 in 10.0 mi NNW 6.9 mph - N/A   Clear
1:14 AM 54.0 °F 39.2 °F 57% 30.17 in 10.0 mi Calm Calm - N/A   Clear
1:34 AM 53.8 °F 39.6 °F 59% 30.17 in 10.0 mi Calm Calm - N/A   Clear
1:55 AM 52.9 °F 39.4 °F 60% 30.17 in 10.0 mi Calm Calm - N/A   Clear
2:15 AM 52.7 °F 39.6 °F 61% 30.16 in 10.0 mi Calm Calm - N/A   Clear
2:35 AM 52.2 °F 39.7 °F 63% 30.17 in 10.0 mi NNW 5.8 mph - N/A   Clear
2:55 AM 52.5 °F 39.2 °F 61% 30.16 in 10.0 mi Calm Calm - N/A   Clear
3:15 AM 52.0 °F 38.8 °F 61% 30.16 in 10.0 mi NNW 6.9 mph - N/A   Clear
3:35 AM 52.3 °F 38.5 °F 59% 30.16 in 10.0 mi NNW 5.8 mph - N/A   Clear
3:55 AM 51.4 °F 38.7 °F 62% 30.16 in 10.0 mi NNW 5.8 mph - N/A   Clear
4:15 AM 51.1 °F 38.7 °F 63% 30.16 in 10.0 mi NW 5.8 mph - N/A   Clear
4:35 AM 50.9 °F 39.6 °F 65% 30.17 in 10.0 mi NW 3.5 mph - N/A   Clear
4:55 AM 52.0 °F 40.1 °F 64% 30.17 in 10.0 mi WNW 4.6 mph - N/A   Clear
5:15 AM 51.6 °F 40.1 °F 65% 30.18 in 10.0 mi NW 8.1 mph - N/A   Clear
5:35 AM 52.2 °F 40.5 °F 64% 30.18 in 10.0 mi WNW 5.8 mph - N/A   Clear
5:50 AM 51.8 °F 41.0 °F 67% 30.19 in 10.0 mi WNW 6.9 mph - N/A   Scattered Clouds
5:55 AM 52.2 °F 40.6 °F 65% 30.19 in 10.0 mi NW 8.1 mph - N/A   Clear
6:15 AM 53.1 °F 40.6 °F 63% 30.20 in 10.0 mi NW 11.5 mph - N/A   Clear
6:35 AM 54.5 °F 41.4 °F 61% 30.20 in 10.0 mi NW 8.1 mph - N/A   Clear
6:50 AM 55.4 °F 41.0 °F 58% 30.21 in 10.0 mi NW 9.2 mph - N/A   Scattered Clouds
6:55 AM 55.4 °F 41.9 °F 60% 30.21 in 10.0 mi NW 9.2 mph - N/A   Clear
7:15 AM 55.8 °F 42.3 °F 60% 30.21 in 10.0 mi NW 8.1 mph - N/A   Clear
7:35 AM 56.8 °F 42.6 °F 59% 30.21 in 10.0 mi NW 8.1 mph - N/A   Clear
7:43 AM 56.7 °F 42.4 °F 59% 30.21 in 10.0 mi NW 10.4 mph 16.1 mph N/A   Clear
7:50 AM 57.2 °F 41.0 °F 55% 30.21 in 10.0 mi NW 11.5 mph - N/A   Clear
8:45 AM 57.2 °F 41.0 °F 55% 30.23 in 10.0 mi NW 11.5 mph 20.7 mph N/A   Clear
9:48 AM 60.8 °F 42.8 °F 52% 30.23 in 10.0 mi NW 10.4 mph - N/A   Clear
10:56 AM 64.4 °F 42.8 °F 45% 30.22 in 10.0 mi WNW 11.5 mph - N/A   Clear
11:51 AM 64.4 °F 41.0 °F 42% 30.21 in 10.0 mi NW 11.5 mph 23.0 mph N/A   Clear
12:48 PM 66.2 °F 41.0 °F 40% 30.21 in 10.0 mi NW 16.1 mph 23.0 mph N/A   Clear
1:51 PM 68.0 °F 41.0 °F 37% 30.18 in 10.0 mi NW 17.3 mph 25.3 mph N/A   Clear
2:52 PM 68.0 °F 41.0 °F 37% 30.17 in 10.0 mi NNW 11.5 mph 19.6 mph N/A   Clear
4:50 PM 71.6 °F 41.0 °F 33% 30.16 in 10.0 mi NW 13.8 mph 18.4 mph N/A   Clear
5:50 PM 71.6 °F 41.0 °F 33% 30.16 in 10.0 mi NW 12.7 mph 17.3 mph N/A   Clear
6:50 PM 71.6 °F 42.8 °F 35% 30.17 in 10.0 mi WNW 3.5 mph - N/A   Clear
7:50 PM 68.0 °F 44.6 °F 43% 30.18 in 10.0 mi Calm Calm - N/A   Clear
8:50 PM 59.0 °F 46.4 °F 63% 30.20 in 10.0 mi Calm Calm - N/A   Clear
10:57 PM 54.1 °F 47.8 °F 79% 30.23 in 10.0 mi Calm Calm - N/A   Clear
11:17 PM 53.8 °F 47.3 °F 79% 30.24 in 10.0 mi Calm Calm - N/A   Clear
11:37 PM 52.7 °F 47.3 °F 82% 30.24 in 10.0 mi Calm Calm - N/A   Clear
11:57 PM 52.9 °F 48.0 °F 84% 30.24 in 10.0 mi Calm Calm - N/A   Clear